| time (UTC) | temp F | wind direction | speed MPH | gust MPH | rain 1hr in | rain 24hr in | rain mn in | humidity % | barometer mb |
| 20260831213116 | 43 | 296 | 3.0 | 13.0 | 0.00 | 0.39 | 0.40 | 95 | 1000.3 |
| 20260831211612 | 43 | 299 | 2.0 | 8.0 | 0.00 | 0.39 | 0.40 | 95 | 1000.3 |
| 20260831210105 | 42 | 0 | 0.0 | 6.0 | 0.00 | 0.39 | 0.40 | 95 | 1000.2 |
| 20260831204602 | 42 | 305 | 3.0 | 9.0 | 0.00 | 0.39 | 0.40 | 95 | 1000.2 |
| 20260831203057 | 42 | 0 | 0.0 | 10.0 | 0.00 | 0.39 | 0.40 | 95 | 1000.2 |
| 20260831201554 | 42 | 293 | 5.0 | 12.0 | 0.00 | 0.39 | 0.40 | 95 | 1000.0 |
| 20260831200048 | 42 | 286 | 1.0 | 9.0 | 0.00 | 0.39 | 0.40 | 95 | 1000.1 |
| 20260831194543 | 41 | 312 | 2.0 | 7.0 | 0.00 | 0.39 | 0.40 | 95 | 1000.1 |
| 20260831193040 | 42 | 310 | 1.0 | 9.0 | 0.00 | 0.39 | 0.40 | 95 | 1000.0 |
| 20260831191535 | 41 | 305 | 2.0 | 6.0 | 0.00 | 0.39 | 0.40 | 95 | 1000.2 |
| 20260831190030 | 41 | 306 | 4.0 | 13.0 | 0.00 | 0.39 | 0.40 | 95 | 1000.0 |
| 20260831184525 | 41 | 0 | 0.0 | 4.0 | 0.00 | 0.39 | 0.40 | 96 | 999.9 |
| 20260831183022 | 41 | 5 | 1.0 | 4.0 | 0.00 | 0.39 | 0.40 | 95 | 999.9 |
| 20260831181517 | 41 | 0 | 0.0 | 0.0 | 0.00 | 0.39 | 0.40 | 95 | 999.9 |
| 20260831180014 | 40 | 0 | 0.0 | 0.0 | 0.00 | 0.39 | 0.40 | 95 | 1000.0 |
| 20260831174509 | 40 | 0 | 0.0 | 0.0 | 0.00 | 0.39 | 0.40 | 95 | 1000.1 |
| 20260831173006 | 39 | 0 | 0.0 | 0.0 | 0.00 | 0.39 | 0.40 | 95 | 1000.2 |
| 20260831171501 | 39 | 0 | 0.0 | 0.0 | 0.00 | 0.39 | 0.40 | 95 | 1000.4 |
| 20260831165958 | 38 | 0 | 0.0 | 0.0 | 0.00 | 0.39 | 0.40 | 95 | 1000.3 |
| 20260831164454 | 38 | 0 | 0.0 | 0.0 | 0.01 | 0.39 | 0.40 | 94 | 1000.3 |
| 20260831162950 | 38 | 0 | 0.0 | 2.0 | 0.03 | 0.39 | 0.40 | 94 | 1000.4 |
| 20260831161446 | 37 | 0 | 0.0 | 4.0 | 0.06 | 0.39 | 0.40 | 94 | 1000.5 |
| 20260831155941 | 37 | 0 | 0.0 | 0.0 | 0.09 | 0.39 | 0.40 | 94 | 1000.9 |
| 20260831154436 | 37 | 0 | 0.0 | 3.0 | 0.10 | 0.38 | 0.39 | 93 | 1001.1 |
| 20260831151426 | 39 | 0 | 0.0 | 0.0 | 0.12 | 0.33 | 0.34 | 93 | 1001.4 |
| 20260831145921 | 39 | 0 | 0.0 | 0.0 | 0.12 | 0.30 | 0.30 | 93 | 1001.3 |
| 20260831142911 | 40 | 291 | 6.0 | 16.0 | 0.16 | 0.24 | 0.24 | 92 | 1001.3 |
| 20260831141408 | 40 | 305 | 8.0 | 13.0 | 0.17 | 0.21 | 0.21 | 92 | 1000.8 |
| 20260831135904 | 40 | 313 | 8.0 | 21.0 | 0.16 | 0.18 | 0.18 | 92 | 1000.5 |
| 20260831134357 | 41 | 13 | 9.0 | 24.0 | 0.15 | 0.15 | 0.15 | 93 | 999.4 |
| 20260831132854 | 44 | 0 | 0.0 | 0.0 | 0.08 | 0.08 | 0.08 | 95 | 999.1 |
| 20260831131349 | 44 | 0 | 0.0 | 0.0 | 0.04 | 0.04 | 0.04 | 95 | 999.4 |
| 20260831125845 | 43 | 0 | 0.0 | 0.0 | 0.02 | 0.02 | 0.02 | 95 | 999.7 |
| 20260831124341 | 43 | 0 | 0.0 | 2.0 | 0.00 | 0.00 | 0.00 | 94 | 999.6 |
| 20260831122838 | 43 | 0 | 0.0 | 0.0 | 0.00 | 0.00 | 0.00 | 94 | 999.7 |
| 20260831121334 | 42 | 0 | 0.0 | 0.0 | 0.00 | 0.00 | 0.00 | 94 | 999.9 |
| 20260831115827 | 42 | 0 | 0.0 | 0.0 | 0.00 | 0.00 | 0.00 | 94 | 1000.3 |
| 20260831114324 | 42 | 0 | 0.0 | 0.0 | 0.00 | 0.00 | 0.00 | 94 | 1000.4 |
| 20260831112820 | 42 | 0 | 0.0 | 0.0 | 0.00 | 0.00 | 0.00 | 94 | 1000.2 |
| 20260831111315 | 42 | 0 | 0.0 | 0.0 | 0.00 | 0.00 | 0.00 | 94 | 1000.5 |
| 20260831105811 | 43 | 0 | 0.0 | 0.0 | 0.00 | 0.00 | 0.00 | 93 | 1000.7 |
| 20260831104307 | 44 | 0 | 0.0 | 0.0 | 0.00 | 0.00 | 0.00 | 94 | 1001.1 |
| 20260831102803 | 44 | 0 | 0.0 | 0.0 | 0.00 | 0.00 | 0.00 | 94 | 1001.4 |
| 20260831101259 | 44 | 0 | 0.0 | 0.0 | 0.00 | 0.00 | 0.00 | 94 | 1001.7 |
| 20260831094252 | 45 | 0 | 0.0 | 0.0 | 0.00 | 0.00 | 0.00 | 93 | 1001.7 |
| 20260831092747 | 45 | 0 | 0.0 | 0.0 | 0.00 | 0.00 | 0.00 | 93 | 1002.2 |
| 20260831091244 | 46 | 0 | 0.0 | 0.0 | 0.00 | 0.00 | 0.00 | 93 | 1002.6 |
| 20260831082729 | 47 | 0 | 0.0 | 0.0 | 0.00 | 0.00 | 0.00 | 93 | 1003.2 |
| 20260831081225 | 47 | 0 | 0.0 | 0.0 | 0.00 | 0.00 | 0.00 | 93 | 1003.4 |
| 20260831075721 | 47 | 0 | 0.0 | 0.0 | 0.00 | 0.00 | 0.00 | 93 | 1003.7 |
| 20260831074217 | 47 | 0 | 0.0 | 0.0 | 0.00 | 0.00 | 0.00 | 93 | 1003.9 |
| 20260831072713 | 47 | 0 | 0.0 | 0.0 | 0.00 | 0.00 | 0.00 | 93 | 1004.1 |
| 20260831071209 | 47 | 0 | 0.0 | 0.0 | 0.00 | 0.00 | 0.00 | 93 | 1004.4 |
| 20260831065705 | 47 | 0 | 0.0 | 0.0 | 0.00 | 0.00 | 0.00 | 92 | 1004.4 |
| 20260831064201 | 48 | 0 | 0.0 | 0.0 | 0.00 | 0.00 | 0.00 | 92 | 1004.6 |
| 20260831062656 | 48 | 0 | 0.0 | 0.0 | 0.00 | 0.00 | 0.00 | 92 | 1004.9 |
| 20260831061153 | 48 | 0 | 0.0 | 0.0 | 0.00 | 0.00 | 0.00 | 92 | 1005.0 |
| 20260831055649 | 48 | 0 | 0.0 | 0.0 | 0.00 | 0.00 | 0.00 | 91 | 1005.2 |
| 20260831054145 | 48 | 0 | 0.0 | 0.0 | 0.00 | 0.00 | 0.00 | 90 | 1005.4 |
| 20260831052642 | 49 | 0 | 0.0 | 0.0 | 0.00 | 0.00 | 0.00 | 89 | 1005.5 |
| 20260831051136 | 49 | 0 | 0.0 | 0.0 | 0.00 | 0.00 | 0.00 | 89 | 1005.6 |
| 20260831045633 | 49 | 0 | 0.0 | 0.0 | 0.00 | 0.00 | 0.00 | 88 | 1005.6 |
| 20260831044127 | 49 | 0 | 0.0 | 0.0 | 0.00 | 0.00 | 0.00 | 87 | 1005.7 |
| 20260831041117 | 50 | 0 | 0.0 | 0.0 | 0.00 | 0.00 | 0.00 | 84 | 1006.0 |
| 20260831035612 | 51 | 0 | 0.0 | 0.0 | 0.00 | 0.00 | 0.00 | 84 | 1006.1 |
| 20260831034109 | 51 | 0 | 0.0 | 0.0 | 0.00 | 0.00 | 0.00 | 83 | 1006.3 |
| 20260831032605 | 51 | 0 | 0.0 | 0.0 | 0.00 | 0.00 | 0.00 | 82 | 1006.8 |
| 20260831031059 | 51 | 0 | 0.0 | 0.0 | 0.00 | 0.00 | 0.00 | 81 | 1007.2 |
| 20260831025556 | 52 | 0 | 0.0 | 0.0 | 0.00 | 0.00 | 0.00 | 81 | 1007.5 |
| 20260831024051 | 53 | 0 | 0.0 | 0.0 | 0.00 | 0.00 | 0.00 | 78 | 1007.7 |
| 20260831022546 | 53 | 0 | 0.0 | 0.0 | 0.00 | 0.00 | 0.00 | 73 | 1008.0 |
| 20260831021043 | 55 | 0 | 0.0 | 3.0 | 0.00 | 0.00 | 0.00 | 69 | 1008.3 |
| 20260831015538 | 55 | 0 | 0.0 | 4.0 | 0.00 | 0.00 | 0.00 | 66 | 1008.2 |
| 20260831012532 | 54 | 0 | 0.0 | 9.0 | 0.00 | 0.00 | 0.00 | 69 | 1008.4 |
| 20260831011026 | 55 | 316 | 1.0 | 9.0 | 0.00 | 0.00 | 0.00 | 68 | 1008.4 |
| 20260831005523 | 55 | 0 | 0.0 | 3.0 | 0.00 | 0.00 | 0.00 | 69 | 1008.6 |
| 20260831004018 | 55 | 0 | 0.0 | 5.0 | 0.00 | 0.00 | 0.00 | 65 | 1008.7 |
| 20260831002515 | 56 | 0 | 0.0 | 4.0 | 0.00 | 0.00 | 0.00 | 62 | 1008.8 |
| 20260831001011 | 56 | 0 | 0.0 | 9.0 | 0.00 | 0.00 | 0.00 | 64 | 1009.2 |
| 20260830235504 | 56 | 3 | 1.0 | 10.0 | 0.00 | 0.00 | 0.00 | 61 | 1009.2 |
| 20260830234001 | 57 | 310 | 1.0 | 10.0 | 0.00 | 0.00 | 0.00 | 62 | 1009.2 |
| 20260830232456 | 57 | 0 | 0.0 | 6.0 | 0.00 | 0.00 | 0.00 | 60 | 1009.5 |
| 20260830230949 | 57 | 0 | 0.0 | 4.0 | 0.00 | 0.00 | 0.00 | 60 | 1009.5 |
| 20260830225444 | 57 | 310 | 1.0 | 7.0 | 0.00 | 0.00 | 0.00 | 62 | 1009.6 |
| 20260830223941 | 57 | 306 | 5.0 | 10.0 | 0.00 | 0.00 | 0.00 | 59 | 1009.6 |
| 20260830222437 | 57 | 322 | 2.0 | 12.0 | 0.00 | 0.00 | 0.00 | 57 | 1009.7 |
| 20260830220932 | 57 | 347 | 1.0 | 11.0 | 0.00 | 0.00 | 0.00 | 58 | 1009.8 |
| 20260830213925 | 57 | 0 | 0.0 | 7.0 | 0.00 | 0.00 | 0.00 | 58 | 1009.8 |